M I D A S
Marine Information and Data Acquisition System
Tripno 1580 of the Zeeleeuw from 2008-10-03 05:58:13 to 2008-10-03 10:57:45
Back to CruiseResearch ActivitiesStationsMapUnderway DataData graphs

EquipmentUnitsComment
TimeDGPSUTC
LatitudeDGPSDM.mWGS84
LongitudeDGPSDM.mWGS84
TemperatureSBE03/SBE38deg celciusITS90
ConductivitySBE21S/mITS90
SalinitySBE21 Practical Salinity Units
ChlorophylAChelsea fluorimeterg/lCalibrated in Aceton
Missing or incorrect values are displayed as -999
Sea surface data collected by the RV Zeeleeuw from 2008-10-03 05:58:13 to 2008-10-03 10:57:45
Time Latitude Longitude Temperature Conductivity Salinity ChlorophylA
2008-10-03 06:00:20 51°13.621 2°56.042 -999 -999 -999 -999
2008-10-03 06:02:20 51°13.674 2°55.845 -999 -999 -999 -999
2008-10-03 06:04:20 51°13.7 2°55.758 -999 -999 -999 -999
2008-10-03 06:06:20 51°13.748 2°55.718 -999 -999 -999 -999
2008-10-03 06:08:20 51°13.984 2°55.52 -999 -999 -999 -999
2008-10-03 06:10:20 51°14.268 2°55.236 -999 -999 -999 -999
2008-10-03 06:12:20 51°14.545 2°54.776 -999 -999 -999 -999
2008-10-03 06:14:20 51°14.895 2°54.462 -999 -999 -999 -999
2008-10-03 06:16:20 51°15.245 2°54.155 -999 -999 -999 -999
2008-10-03 06:18:20 51°15.594 2°53.837 -999 -999 -999 -999
2008-10-03 06:20:20 51°15.949 2°53.536 -999 -999 -999 -999
2008-10-03 06:22:20 51°16.308 2°53.253 -999 -999 -999 -999
2008-10-03 06:24:20 51°16.674 2°52.977 -999 -999 -999 -999
2008-10-03 06:26:20 51°17.038 2°52.701 -999 -999 -999 -999
2008-10-03 06:28:20 51°17.403 2°52.812 -999 -999 -999 -999
2008-10-03 06:30:20 51°17.68 2°53.252 -999 -999 -999 -999
2008-10-03 06:32:20 51°17.989 2°53.641 -999 -999 -999 -999
2008-10-03 06:34:20 51°18.305 2°54.015 -999 -999 -999 -999
2008-10-03 06:36:20 51°18.589 2°54.442 -999 -999 -999 -999
2008-10-03 06:38:20 51°18.833 2°54.92 -999 -999 -999 -999
2008-10-03 06:40:20 51°19.083 2°55.386 -999 -999 -999 -999
2008-10-03 06:42:20 51°19.343 2°55.854 -999 -999 -999 -999
2008-10-03 06:44:20 51°19.604 2°56.308 -999 -999 -999 -999
2008-10-03 06:46:20 51°19.861 2°56.763 -999 -999 -999 -999
2008-10-03 06:48:20 51°20.122 2°57.215 -999 -999 -999 -999
2008-10-03 06:50:20 51°20.383 2°57.668 -999 -999 -999 -999
2008-10-03 06:52:20 51°20.646 2°58.12 -999 -999 -999 -999
2008-10-03 06:54:20 51°20.906 2°58.57 -999 -999 -999 -999
2008-10-03 06:56:20 51°21.171 2°59.008 -999 -999 -999 -999
2008-10-03 06:58:20 51°21.432 2°59.461 -999 -999 -999 -999
2008-10-03 07:00:20 51°21.691 2°59.902 -999 -999 -999 -999
2008-10-03 07:02:20 51°21.934 3°0.366 -999 -999 -999 -999
2008-10-03 07:04:20 51°22.131 3°0.879 -999 -999 -999 -999
2008-10-03 07:06:20 51°22.29 3°1.411 -999 -999 -999 -999
2008-10-03 07:08:20 51°22.494 3°1.907 -999 -999 -999 -999
2008-10-03 07:10:20 51°22.631 3°2.227 -999 -999 -999 -999
2008-10-03 07:12:20 51°22.664 3°2.313 -999 -999 -999 -999
2008-10-03 07:14:20 51°22.682 3°2.337 -999 -999 -999 -999
2008-10-03 07:16:20 51°22.694 3°2.332 -999 -999 -999 -999
2008-10-03 07:18:20 51°22.703 3°2.311 -999 -999 -999 -999
2008-10-03 07:20:20 51°22.713 3°2.284 -999 -999 -999 -999
2008-10-03 07:22:20 51°22.721 3°2.252 -999 -999 -999 -999
2008-10-03 07:24:20 51°22.718 3°2.274 -999 -999 -999 -999
2008-10-03 07:26:20 51°22.842 3°2.306 -999 -999 -999 -999
2008-10-03 07:28:20 51°22.957 3°2.399 -999 -999 -999 -999
2008-10-03 07:30:20 51°23.091 3°2.521 -999 -999 -999 -999
2008-10-03 07:32:20 51°23.217 3°2.634 -999 -999 -999 -999
2008-10-03 07:34:20 51°23.345 3°2.745 -999 -999 -999 -999
2008-10-03 07:36:20 51°23.468 3°2.858 -999 -999 -999 -999
2008-10-03 07:38:20 51°23.532 3°3.039 -999 -999 -999 -999
2008-10-03 07:40:20 51°23.482 3°3.21 -999 -999 -999 -999
2008-10-03 07:42:20 51°23.383 3°3.132 -999 -999 -999 -999
2008-10-03 07:44:20 51°23.402 3°2.911 -999 -999 -999 -999
2008-10-03 07:46:20 51°23.462 3°2.734 -999 -999 -999 -999
2008-10-03 07:48:20 51°23.474 3°2.566 -999 -999 -999 -999
2008-10-03 07:50:20 51°23.341 3°2.509 -999 -999 -999 -999
2008-10-03 07:52:20 51°23.203 3°2.434 -999 -999 -999 -999
2008-10-03 07:54:20 51°23.087 3°2.352 -999 -999 -999 -999
2008-10-03 07:56:20 51°22.972 3°2.293 -999 -999 -999 -999
2008-10-03 07:58:20 51°22.854 3°2.221 -999 -999 -999 -999
2008-10-03 08:00:20 51°22.733 3°2.152 -999 -999 -999 -999
2008-10-03 08:02:20 51°22.609 3°2.077 -999 -999 -999 -999
2008-10-03 08:04:20 51°22.554 3°2.147 -999 -999 -999 -999
2008-10-03 08:06:20 51°22.549 3°2.396 -999 -999 -999 -999
2008-10-03 08:08:20 51°22.605 3°2.506 -999 -999 -999 -999
2008-10-03 08:10:20 51°22.644 3°2.299 -999 -999 -999 -999
2008-10-03 08:12:20 51°22.666 3°2.062 -999 -999 -999 -999
2008-10-03 08:14:20 51°22.671 3°1.845 -999 -999 -999 -999
2008-10-03 08:16:20 51°22.601 3°1.726 -999 -999 -999 -999
2008-10-03 08:18:20 51°22.65 3°1.911 -999 -999 -999 -999
2008-10-03 08:20:20 51°22.668 3°2.114 -999 -999 -999 -999
2008-10-03 08:22:20 51°22.667 3°2.316 -999 -999 -999 -999
2008-10-03 08:24:20 51°22.622 3°2.533 -999 -999 -999 -999
2008-10-03 08:26:20 51°22.694 3°2.431 -999 -999 -999 -999
2008-10-03 08:28:20 51°22.67 3°2.201 -999 -999 -999 -999
2008-10-03 08:30:20 51°22.654 3°1.983 -999 -999 -999 -999
2008-10-03 08:32:20 51°22.657 3°1.745 -999 -999 -999 -999
2008-10-03 08:34:20 51°22.61 3°1.529 -999 -999 -999 -999
2008-10-03 08:36:20 51°22.598 3°1.709 -999 -999 -999 -999
2008-10-03 08:38:20 51°22.626 3°1.905 -999 -999 -999 -999
2008-10-03 08:40:20 51°22.663 3°2.118 -999 -999 -999 -999
2008-10-03 08:42:20 51°22.655 3°2.375 -999 -999 -999 -999
2008-10-03 08:44:20 51°22.645 3°2.617 -999 -999 -999 -999
2008-10-03 08:46:20 51°22.693 3°2.432 -999 -999 -999 -999
2008-10-03 08:48:20 51°22.665 3°2.194 -999 -999 -999 -999
2008-10-03 08:50:20 51°22.664 3°1.988 -999 -999 -999 -999
2008-10-03 08:52:20 51°22.77 3°1.902 -999 -999 -999 -999
2008-10-03 08:54:20 51°22.86 3°2.09 -999 -999 -999 -999
2008-10-03 08:56:20 51°22.93 3°2.286 -999 -999 -999 -999
2008-10-03 08:58:20 51°22.999 3°2.48 -999 -999 -999 -999
2008-10-03 09:00:20 51°23.069 3°2.676 -999 -999 -999 -999
2008-10-03 09:02:20 51°23.137 3°2.865 -999 -999 -999 -999
2008-10-03 09:04:20 51°23.202 3°3.051 -999 -999 -999 -999
2008-10-03 09:06:20 51°23.304 3°3.157 -999 -999 -999 -999
2008-10-03 09:08:20 51°23.414 3°2.989 -999 -999 -999 -999
2008-10-03 09:10:20 51°23.443 3°2.773 -999 -999 -999 -999
2008-10-03 09:12:20 51°23.47 3°2.569 -999 -999 -999 -999
2008-10-03 09:14:20 51°23.435 3°2.364 -999 -999 -999 -999
2008-10-03 09:16:20 51°23.401 3°2.467 -999 -999 -999 -999
2008-10-03 09:18:20 51°23.434 3°2.681 -999 -999 -999 -999
2008-10-03 09:20:20 51°23.452 3°2.861 -999 -999 -999 -999
2008-10-03 09:22:20 51°23.391 3°3.084 -999 -999 -999 -999
2008-10-03 09:24:20 51°23.283 3°3.264 -999 -999 -999 -999
2008-10-03 09:26:20 51°23.383 3°3.207 -999 -999 -999 -999
2008-10-03 09:28:20 51°23.447 3°2.984 -999 -999 -999 -999
2008-10-03 09:30:20 51°23.441 3°2.775 -999 -999 -999 -999
2008-10-03 09:32:20 51°23.457 3°2.589 -999 -999 -999 -999
2008-10-03 09:34:20 51°23.393 3°2.407 -999 -999 -999 -999
2008-10-03 09:36:20 51°23.367 3°2.481 -999 -999 -999 -999
2008-10-03 09:38:20 51°23.428 3°2.655 -999 -999 -999 -999
2008-10-03 09:40:20 51°23.445 3°2.837 -999 -999 -999 -999
2008-10-03 09:42:20 51°23.469 3°3.007 -999 -999 -999 -999
2008-10-03 09:44:20 51°23.541 3°3.125 -999 -999 -999 -999
2008-10-03 09:46:20 51°23.627 3°3.243 -999 -999 -999 -999
2008-10-03 09:48:20 51°23.66 3°3.42 -999 -999 -999 -999
2008-10-03 09:50:20 51°23.703 3°3.535 -999 -999 -999 -999
2008-10-03 09:52:20 51°23.691 3°3.314 -999 -999 -999 -999
2008-10-03 09:54:20 51°23.586 3°3.158 -999 -999 -999 -999
2008-10-03 09:56:20 51°23.505 3°2.958 -999 -999 -999 -999
2008-10-03 09:58:20 51°23.421 3°2.764 -999 -999 -999 -999
2008-10-03 10:00:20 51°23.343 3°2.572 -999 -999 -999 -999
2008-10-03 10:02:20 51°23.244 3°2.374 -999 -999 -999 -999
2008-10-03 10:04:20 51°23.016 3°1.893 -999 -999 -999 -999
2008-10-03 10:06:20 51°22.708 3°1.375 -999 -999 -999 -999
2008-10-03 10:08:20 51°22.387 3°0.89 -999 -999 -999 -999
2008-10-03 10:10:20 51°22.067 3°0.392 -999 -999 -999 -999
2008-10-03 10:12:20 51°21.764 2°59.866 -999 -999 -999 -999
2008-10-03 10:14:20 51°21.469 2°59.327 -999 -999 -999 -999
2008-10-03 10:16:20 51°21.177 2°58.777 -999 -999 -999 -999
2008-10-03 10:18:20 51°20.878 2°58.228 -999 -999 -999 -999
2008-10-03 10:20:20 51°20.576 2°57.69 -999 -999 -999 -999
2008-10-03 10:22:20 51°20.271 2°57.152 -999 -999 -999 -999
2008-10-03 10:24:20 51°19.97 2°56.612 -999 -999 -999 -999
2008-10-03 10:26:20 51°19.664 2°56.085 -999 -999 -999 -999
2008-10-03 10:28:20 51°19.361 2°55.56 -999 -999 -999 -999
2008-10-03 10:30:20 51°19.05 2°55.054 -999 -999 -999 -999
2008-10-03 10:32:20 51°18.719 2°54.583 -999 -999 -999 -999
2008-10-03 10:34:20 51°18.392 2°54.111 -999 -999 -999 -999
2008-10-03 10:36:20 51°18.055 2°53.65 -999 -999 -999 -999
2008-10-03 10:38:20 51°17.733 2°53.17 -999 -999 -999 -999
2008-10-03 10:40:20 51°17.407 2°52.705 -999 -999 -999 -999
2008-10-03 10:42:20 51°17.009 2°52.653 -999 -999 -999 -999
2008-10-03 10:44:20 51°16.646 2°52.966 -999 -999 -999 -999
2008-10-03 10:46:20 51°16.269 2°53.263 -999 -999 -999 -999
2008-10-03 10:48:20 51°15.899 2°53.552 -999 -999 -999 -999
2008-10-03 10:50:20 51°15.529 2°53.83 -999 -999 -999 -999
2008-10-03 10:52:20 51°15.165 2°54.119 -999 -999 -999 -999
2008-10-03 10:54:20 51°14.833 2°54.488 -999 -999 -999 -999
2008-10-03 10:56:20 51°14.519 2°54.873 -999 -999 -999 -999